This demonstration page uses our WeatherBlox Daily Observations layout. Learn more.

Left ArrowRight Arrow

Hourly Observations for January 22, 2017

Temp ( °F °C ) Dew Point ( °F °C ) Humidity (%) Winds ( mph kmh ) Pressure ( in mb ) Visibility ( mi km ) Precip ( " mm )
12:26 am 00:26 Clear with Mist and Fog 36 2 34 1 93 93 Calm 29.71 1006 3 4 0.00 0.00
12:40 am 00:40 Clear with Mist and Fog 34 1 30 -1 87 87 N 3 6 29.71 1006 1 2 0.00 0.00
12:49 am 00:49 Clear with Mist and Fog 34 1 30 -1 87 87 NNW 8 13 29.71 1006 3 5 0.00 0.00
12:53 am 00:53 Clear with Mist and Fog 34 1.1 32 0 92 92 NNW 8 13 29.63 1003 6 10 0.00 0.00
1:53 am 01:53 Clear 34 1.1 30 -1.1 85 85 NNW 12 19 29.65 1004 10 16 0.00 0.00
2:53 am 02:53 Clear 33 0.6 29 -1.7 85 85 NNW 10 17 29.67 1005 10 16 0.00 0.00
3:53 am 03:53 Clear 32 0 28 -2.2 85 85 NNW 7 11 29.70 1006 10 16 0.00 0.00
4:53 am 04:53 Clear 32 0 29 -1.7 88 88 NNW 9 15 29.72 1006 10 16 0.00 0.00
5:53 am 05:53 Clear 32 0 28 -2.2 85 85 NNW 9 15 29.74 1007 10 16 0.00 0.00
6:53 am 06:53 Clear 32 0 27 -2.8 82 82 NNW 15 24 29.76 1008 10 16 0.00 0.00
7:53 am 07:53 Sunny 31 -0.6 27 -2.8 85 85 NNW 13 20 29.80 1009 10 16 0.00 0.00
8:53 am 08:53 Sunny 33 0.6 27 -2.8 78 78 NNW 13 20 29.83 1010 10 16 0.00 0.00
9:53 am 09:53 Sunny 35 1.7 28 -2.2 76 76 NNW 16 26 29.86 1011 10 16 0.00 0.00
10:53 am 10:53 Sunny 37 2.8 29 -1.7 73 73 N 17 28 29.88 1012 10 16 0.00 0.00
11:53 am 11:53 Sunny 40 4.4 30 -1.1 68 68 N 15 24 29.89 1012 10 16 0.00 0.00
12:53 pm 12:53 Sunny 42 5.6 31 -0.6 65 65 N 14 22 29.88 1012 10 16 0.00 0.00
1:53 pm 13:53 Sunny 45 7.2 30 -1.1 56 56 NNW 17 28 29.86 1011 10 16 0.00 0.00
2:53 pm 14:53 Sunny 46 7.8 30 -1.1 54 54 NNW 13 20 29.86 1011 10 16 0.00 0.00
3:53 pm 15:53 Sunny 48 8.9 31 -0.6 52 52 NNW 7 11 29.87 1012 10 16 0.00 0.00
4:53 pm 16:53 Sunny 46 7.8 33 0.6 61 61 NW 6 9 29.89 1012 10 16 0.00 0.00
5:53 pm 17:53 Clear 39 3.9 32 0 76 76 NNW 6 9 29.91 1013 10 16 0.00 0.00
6:53 pm 18:53 Clear 35 1.7 30 -1.1 82 82 WNW 3 6 29.92 1013 10 16 0.00 0.00
7:53 pm 19:53 Clear 34 1.1 30 -1.1 85 85 Calm 29.94 1014 10 16 0.00 0.00
8:53 pm 20:53 Clear 36 2.2 30 -1.1 79 79 W 5 7 29.93 1014 10 16 0.00 0.00
9:53 pm 21:53 Clear 30 -1.1 26 -3.3 85 85 WNW 7 11 29.95 1014 10 16 0.00 0.00
10:53 pm 22:53 Clear 31 -0.6 28 -2.2 89 89 Calm 29.95 1014 10 16 0.00 0.00
11:53 pm 23:53 Clear 29 -1.7 25 -3.9 85 85 NW 5 7 29.95 1014 10 16 0.00 0.00

Powered by AerisWeather